ONEWEB-0060, 45455

Orbit data source: Space-Track

ONEWEB-0060, 45455 is a payload satellite owned by One Web (UK) in LEO that was launched on Sat, 21 Mar 2020 UTC via a SOYUZ-2-1B launch vehicle from the Tyuratam Missile And Space Complex (TTMTR). Payload-class satellites include a variety of spacecraft equipped with specific instruments for various scientific and technological missions. These include communications satellites like Starlink; space stations such as the ISS; scientific satellites like the Hubble; Earth observation satellites from companies like Planet Labs, Umbra, and HawkEye 360; GPS; miniature CubeSats for education and research; and military/defense satellites.

Loading next visibility...
Identifier
45455, 2020-020AH
Orbit
LEO
Country
Flag of UKUK
Related business
Manufacturer
One Web
Mission
Operational Commercial Communications
Bus & Motor
ARROW, Unknown motor
Mass
148 kg wet, ~140 kg dry
Launch date (UTC)
2020-03-21 (6 years ago)
Launch vehicle
SOYUZ-2-1B
Launch site
Tyuratam Missile And Space Complex (TTMTR)
Object type
Payload
Rocket body
Debris
Shape & HBR
Trap Box + 2 Pan, 6.7 m
Radar Cross Section
3.464 m², Large (>1 m²)

Expand to show TLE details & history
Last TLE update: 10 hours ago

TLE from 10 hours ago
0 ONEWEB-0060
1 45455U 20020AH  25295.12705814  .00000414  00000-0  11332-2 0  9999
2 45455  87.8825  68.4843 0001265 146.0029 214.1180 13.11418738271343
Epoch: 2025-10-22T03:02Z
TLE epoch observation values (Epoch: 2025-10-22T03:02:57.823Z)
Latitude
-0.00003°
Longitude
-8.06176°
Altitude
1,221.361 km
Speed
7.243 km/s
True Right ascension
04h 33m 56s
True Declination
0° 00' 00"
Sunlit
Object was in full shadow at epoch
Visualization orbit readout
Latitude
Unknown
Longitude
Unknown
Altitude
Unknown
Speed
Unknown
Apparent Right ascension
Unknown
Apparent Declination
Unknown
Sunlit
N/A
Visualization observer readout
Local Sidereal Time
07:51:42
Azimuth
Unknown
Elevation
Unknown
Doppler factor
Unknown
Orbital elements
Apogee altitude
1,215.755 km
Perigee altitude
1,213.834 km
Semi-major axis
7,592.931 km
Eccentricity
0.00013
Inclination
87.8825°
RAAN
68.4843°
Arg. of periapsis
146.0029°
True anomaly
214.10987°
Mean anomaly
214.118°
Eccentric anomaly
214.11394°
Mean motion
3.28042 °/min
Orbital period
109.74 mins
BSTAR
0.0011332
Loading maneuver chart data...
Computing Atmospheric mass density...
Loading historical data...
Loading historical data...
Loading historical data...
Loading historical data...
Loading historical data...
Loading historical data...
Loading historical data...

Documentation

Showing up to 5 results
|